Time,TemperatureF,DewpointF,PressureIn,WindDirection,WindDirectionDegrees,WindSpeedMPH,WindSpeedGustMPH,Humidity,HourlyPrecipIn,Conditions,Clouds,dailyrainin,SoftwareType,DateUTC
2013-02-17 00:00:00,69.9,61.6,30.10,East,82,5.0,5.0,75,0.00,,,0.00,Wunderground v.1.15,2013-02-17 10:00:00,
2013-02-17 00:05:00,70.1,61.8,30.09,East,91,5.0,5.0,75,0.00,,,0.00,Wunderground v.1.15,2013-02-17 10:05:00,
2013-02-17 00:15:00,68.7,62.6,30.10,ENE,71,8.0,20.0,81,0.00,,,0.01,Wunderground v.1.15,2013-02-17 10:15:00,
2013-02-17 00:25:00,66.3,62.0,30.10,ENE,67,6.0,9.0,86,0.10,,,0.02,Wunderground v.1.15,2013-02-17 10:25:00,
2013-02-17 00:35:00,66.3,62.3,30.09,NE,48,3.0,5.0,87,0.04,,,0.02,Wunderground v.1.15,2013-02-17 10:35:00,
2013-02-17 00:45:00,67.0,62.0,30.09,East,88,3.0,3.0,84,0.00,,,0.02,Wunderground v.1.15,2013-02-17 10:45:00,
2013-02-17 00:55:00,68.4,62.0,30.09,ENE,73,6.0,7.0,80,0.00,,,0.02,Wunderground v.1.15,2013-02-17 10:55:00,
2013-02-17 01:05:00,69.3,61.4,30.09,East,82,8.0,8.0,76,0.00,,,0.02,Wunderground v.1.15,2013-02-17 11:05:00,
2013-02-17 01:15:00,69.4,61.9,30.09,East,90,6.0,9.0,77,0.00,,,0.02,Wunderground v.1.15,2013-02-17 11:15:00,
2013-02-17 01:25:00,69.7,61.0,30.08,ENE,67,7.0,7.0,74,0.00,,,0.02,Wunderground v.1.15,2013-02-17 11:25:00,
2013-02-17 01:35:00,69.8,61.9,30.08,ENE,65,7.0,7.0,76,0.00,,,0.02,Wunderground v.1.15,2013-02-17 11:35:00,
2013-02-17 01:45:00,69.9,61.6,30.08,ENE,75,6.0,10.0,75,0.00,,,0.02,Wunderground v.1.15,2013-02-17 11:45:00,
2013-02-17 01:55:00,70.1,61.8,30.09,ENE,72,6.0,9.0,75,0.00,,,0.02,Wunderground v.1.15,2013-02-17 11:55:00,
2013-02-17 02:05:00,70.2,60.7,30.08,East,94,8.0,11.0,72,0.00,,,0.02,Wunderground v.1.15,2013-02-17 12:05:00,
2013-02-17 02:15:00,70.2,60.7,30.08,East,80,8.0,12.0,72,0.00,,,0.02,Wunderground v.1.15,2013-02-17 12:15:00,
2013-02-17 02:25:00,70.1,61.0,30.08,ENE,72,8.0,9.0,73,0.00,,,0.02,Wunderground v.1.15,2013-02-17 12:25:00,
2013-02-17 02:30:00,70.1,61.4,30.07,ENE,65,7.0,13.0,74,0.00,,,0.02,Wunderground v.1.15,2013-02-17 12:30:00,
2013-02-17 02:40:00,70.1,61.4,30.07,ENE,69,6.0,6.0,74,0.00,,,0.02,Wunderground v.1.15,2013-02-17 12:40:00,
2013-02-17 02:50:00,70.3,60.8,30.07,ENE,75,8.0,8.0,72,0.00,,,0.02,Wunderground v.1.15,2013-02-17 12:50:00,
2013-02-17 03:00:00,70.3,60.8,30.07,NE,38,7.0,7.0,72,0.00,,,0.02,Wunderground v.1.15,2013-02-17 13:00:00,
2013-02-17 03:05:00,70.3,61.6,30.07,ENE,59,7.0,7.0,74,0.00,,,0.02,Wunderground v.1.15,2013-02-17 13:05:00,
2013-02-17 03:15:00,70.2,61.5,30.07,ENE,76,7.0,7.0,74,0.00,,,0.02,Wunderground v.1.15,2013-02-17 13:15:00,
2013-02-17 03:25:00,70.3,61.2,30.06,ENE,65,7.0,9.0,73,0.00,,,0.02,Wunderground v.1.15,2013-02-17 13:25:00,
2013-02-17 03:35:00,70.2,61.1,30.06,ESE,111,6.0,6.0,73,0.00,,,0.02,Wunderground v.1.15,2013-02-17 13:35:00,
2013-02-17 03:40:00,70.2,61.1,30.06,ENE,78,7.0,7.0,73,0.00,,,0.02,Wunderground v.1.15,2013-02-17 13:40:00,
2013-02-17 03:50:00,70.2,61.5,30.05,ESE,103,7.0,16.0,74,0.00,,,0.02,Wunderground v.1.15,2013-02-17 13:50:00,
2013-02-17 03:55:00,70.2,61.5,30.05,East,83,6.0,16.0,74,0.00,,,0.02,Wunderground v.1.15,2013-02-17 13:55:00,
2013-02-17 04:05:00,69.9,61.2,30.05,NE,53,6.0,6.0,74,0.00,,,0.02,Wunderground v.1.15,2013-02-17 14:05:00,
2013-02-17 04:15:00,70.1,61.4,30.05,ENE,69,6.0,7.0,74,0.00,,,0.02,Wunderground v.1.15,2013-02-17 14:15:00,
2013-02-17 04:25:00,70.4,61.7,30.05,NE,54,7.0,7.0,74,0.00,,,0.02,Wunderground v.1.15,2013-02-17 14:25:00,
2013-02-17 04:35:00,70.4,61.3,30.05,East,100,7.0,7.0,73,0.00,,,0.02,Wunderground v.1.15,2013-02-17 14:35:00,
2013-02-17 04:45:00,70.4,61.3,30.05,East,90,7.0,8.0,73,0.00,,,0.02,Wunderground v.1.15,2013-02-17 14:45:00,
2013-02-17 04:50:00,70.3,60.8,30.05,ESE,110,7.0,7.0,72,0.00,,,0.02,Wunderground v.1.15,2013-02-17 14:50:00,
2013-02-17 05:00:00,70.5,61.8,30.05,ENE,68,7.0,7.0,74,0.00,,,0.02,Wunderground v.1.15,2013-02-17 15:00:00,
2013-02-17 05:05:00,70.3,62.4,30.05,East,100,7.0,9.0,76,0.00,,,0.02,Wunderground v.1.15,2013-02-17 15:05:00,
2013-02-17 05:15:00,67.7,62.3,30.05,ENE,72,8.0,13.0,83,0.12,,,0.04,Wunderground v.1.15,2013-02-17 15:15:00,
2013-02-17 05:25:00,66.7,62.0,30.05,East,84,6.0,7.0,85,0.04,,,0.04,Wunderground v.1.15,2013-02-17 15:25:00,
2013-02-17 05:35:00,67.2,61.5,30.05,East,82,5.0,11.0,82,0.00,,,0.04,Wunderground v.1.15,2013-02-17 15:35:00,
2013-02-17 05:40:00,67.5,62.2,30.05,ENE,62,4.0,4.0,83,0.00,,,0.04,Wunderground v.1.15,2013-02-17 15:40:00,
2013-02-17 05:45:00,67.5,62.5,30.06,ENE,73,4.0,4.0,84,0.00,,,0.04,Wunderground v.1.15,2013-02-17 15:45:00,
2013-02-17 05:55:00,67.9,62.9,30.06,East,96,5.0,5.0,84,0.00,,,0.04,Wunderground v.1.15,2013-02-17 15:55:00,
2013-02-17 06:05:00,68.4,63.0,30.06,East,83,6.0,7.0,83,0.00,,,0.04,Wunderground v.1.15,2013-02-17 16:05:00,
2013-02-17 06:15:00,68.0,62.6,30.07,ENE,76,9.0,9.0,83,0.00,,,0.05,Wunderground v.1.15,2013-02-17 16:15:00,
2013-02-17 06:25:00,67.9,62.9,30.07,East,79,7.0,8.0,84,0.00,,,0.05,Wunderground v.1.15,2013-02-17 16:25:00,
2013-02-17 06:35:00,68.1,62.7,30.08,ENE,62,6.0,6.0,83,0.00,,,0.05,Wunderground v.1.15,2013-02-17 16:35:00,
2013-02-17 06:45:00,68.6,62.5,30.08,NNE,20,6.0,6.0,81,0.00,,,0.05,Wunderground v.1.15,2013-02-17 16:45:00,
2013-02-17 06:50:00,68.9,62.8,30.08,East,95,7.0,7.0,81,0.00,,,0.05,Wunderground v.1.15,2013-02-17 16:50:00,
2013-02-17 07:00:00,67.4,62.7,30.09,ENE,69,8.0,8.0,85,0.17,,,0.07,Wunderground v.1.15,2013-02-17 17:00:00,
2013-02-17 07:05:00,66.4,62.1,30.09,NE,55,8.0,8.0,86,0.07,,,0.07,Wunderground v.1.15,2013-02-17 17:05:00,
2013-02-17 07:15:00,66.9,62.9,30.09,NE,52,5.0,6.0,87,0.00,,,0.07,Wunderground v.1.15,2013-02-17 17:15:00,
2013-02-17 07:20:00,67.5,63.8,30.08,East,79,5.0,7.0,88,0.00,,,0.07,Wunderground v.1.15,2013-02-17 17:20:00,
2013-02-17 07:30:00,68.4,63.4,30.08,SE,125,8.0,8.0,84,0.00,,,0.07,Wunderground v.1.15,2013-02-17 17:30:00,
2013-02-17 07:40:00,67.0,62.7,30.10,ESE,104,11.0,16.0,86,0.22,,,0.10,Wunderground v.1.15,2013-02-17 17:40:00,
2013-02-17 07:50:00,66.0,62.7,30.10,East,100,9.0,9.0,89,0.05,,,0.10,Wunderground v.1.15,2013-02-17 17:50:00,
2013-02-17 08:00:00,66.7,61.7,30.11,East,90,9.0,9.0,84,0.00,,,0.10,Wunderground v.1.15,2013-02-17 18:00:00,
2013-02-17 08:05:00,66.8,61.5,30.11,East,84,8.0,9.0,83,0.00,,,0.10,Wunderground v.1.15,2013-02-17 18:05:00,
2013-02-17 08:15:00,67.6,62.3,30.11,ENE,72,6.0,8.0,83,0.00,,,0.10,Wunderground v.1.15,2013-02-17 18:15:00,
2013-02-17 08:20:00,67.8,62.8,30.12,ESE,122,6.0,6.0,84,0.00,,,0.10,Wunderground v.1.15,2013-02-17 18:20:00,
2013-02-17 08:25:00,67.1,62.8,30.12,ESE,121,7.0,14.0,86,0.00,,,0.10,Wunderground v.1.15,2013-02-17 18:25:00,
2013-02-17 08:35:00,65.9,62.2,30.12,East,93,8.0,8.0,88,0.00,,,0.11,Wunderground v.1.15,2013-02-17 18:35:00,
2013-02-17 08:45:00,66.1,62.4,30.12,ESE,103,6.0,7.0,88,0.00,,,0.11,Wunderground v.1.15,2013-02-17 18:45:00,
2013-02-17 08:55:00,66.4,63.1,30.12,East,86,7.0,13.0,89,0.18,,,0.13,Wunderground v.1.15,2013-02-17 18:55:00,
2013-02-17 09:00:00,66.5,63.2,30.13,East,88,10.0,10.0,89,0.07,,,0.13,Wunderground v.1.15,2013-02-17 19:00:00,
2013-02-17 09:05:00,66.1,62.8,30.12,East,95,8.0,10.0,89,0.05,,,0.14,Wunderground v.1.15,2013-02-17 19:05:00,
2013-02-17 09:15:00,66.4,63.4,30.12,East,90,4.0,6.0,90,0.05,,,0.14,Wunderground v.1.15,2013-02-17 19:15:00,
2013-02-17 09:20:00,66.9,63.9,30.12,ESE,118,4.0,4.0,90,0.04,,,0.14,Wunderground v.1.15,2013-02-17 19:20:00,
2013-02-17 09:30:00,66.8,63.8,30.13,East,96,4.0,4.0,90,0.62,,,0.19,Wunderground v.1.15,2013-02-17 19:30:00,
2013-02-17 09:40:00,66.5,63.8,30.13,ENE,71,4.0,6.0,91,0.06,,,0.19,Wunderground v.1.15,2013-02-17 19:40:00,
2013-02-17 09:50:00,66.4,64.0,30.13,ESE,107,5.0,5.0,92,0.12,,,0.22,Wunderground v.1.15,2013-02-17 19:50:00,
2013-02-17 10:00:00,67.1,64.7,30.14,SE,125,4.0,11.0,92,0.04,,,0.22,Wunderground v.1.15,2013-02-17 20:00:00,
2013-02-17 10:05:00,67.9,63.9,30.14,ENE,65,6.0,17.0,87,0.00,,,0.22,Wunderground v.1.15,2013-02-17 20:05:00,
2013-02-17 10:15:00,69.2,64.8,30.15,ENE,65,6.0,7.0,86,0.00,,,0.22,Wunderground v.1.15,2013-02-17 20:15:00,
2013-02-17 10:25:00,70.3,64.2,30.14,ENE,75,8.0,8.0,81,0.00,,,0.22,Wunderground v.1.15,2013-02-17 20:25:00,
2013-02-17 10:35:00,70.7,64.6,30.14,ENE,67,7.0,7.0,81,0.00,,,0.22,Wunderground v.1.15,2013-02-17 20:35:00,
2013-02-17 10:45:00,70.8,63.6,30.14,ENE,71,8.0,8.0,78,0.00,,,0.22,Wunderground v.1.15,2013-02-17 20:45:00,
2013-02-17 10:55:00,72.0,64.4,30.13,NE,51,8.0,12.0,77,0.00,,,0.22,Wunderground v.1.15,2013-02-17 20:55:00,
2013-02-17 11:05:00,69.5,64.1,30.14,ENE,74,10.0,17.0,83,0.00,,,0.22,Wunderground v.1.15,2013-02-17 21:05:00,
2013-02-17 11:15:00,66.7,62.7,30.14,East,84,11.0,16.0,87,0.00,,,0.23,Wunderground v.1.15,2013-02-17 21:15:00,
2013-02-17 11:25:00,67.4,64.0,30.13,NE,55,7.0,10.0,89,0.00,,,0.23,Wunderground v.1.15,2013-02-17 21:25:00,
2013-02-17 11:35:00,69.3,64.9,30.13,East,86,4.0,4.0,86,0.00,,,0.23,Wunderground v.1.15,2013-02-17 21:35:00,
2013-02-17 11:40:00,70.1,65.0,30.12,ESE,113,5.0,5.0,84,0.00,,,0.23,Wunderground v.1.15,2013-02-17 21:40:00,
2013-02-17 11:50:00,71.4,63.8,30.13,ENE,67,7.0,20.0,77,0.00,,,0.23,Wunderground v.1.15,2013-02-17 21:50:00,
2013-02-17 11:55:00,71.0,63.4,30.12,ENE,71,9.0,20.0,77,0.00,,,0.23,Wunderground v.1.15,2013-02-17 21:55:00,
2013-02-17 12:05:00,70.3,63.5,30.11,East,79,8.0,8.0,79,0.00,,,0.23,Wunderground v.1.15,2013-02-17 22:05:00,
2013-02-17 12:15:00,67.4,63.1,30.12,East,87,10.0,10.0,86,0.23,,,0.26,Wunderground v.1.15,2013-02-17 22:15:00,
2013-02-17 12:20:00,66.8,62.8,30.11,ENE,77,8.0,8.0,87,0.08,,,0.26,Wunderground v.1.15,2013-02-17 22:20:00,
2013-02-17 12:25:00,67.1,63.1,30.10,East,98,5.0,8.0,87,0.05,,,0.26,Wunderground v.1.15,2013-02-17 22:25:00,
2013-02-17 12:35:00,67.9,62.5,30.10,East,87,7.0,11.0,83,0.00,,,0.26,Wunderground v.1.15,2013-02-17 22:35:00,
2013-02-17 12:40:00,68.3,63.3,30.10,ENE,72,7.0,7.0,84,0.00,,,0.26,Wunderground v.1.15,2013-02-17 22:40:00,
2013-02-17 12:50:00,69.3,62.5,30.09,East,101,7.0,7.0,79,0.00,,,0.26,Wunderground v.1.15,2013-02-17 22:50:00,
2013-02-17 12:55:00,69.9,62.4,30.10,ESE,109,8.0,8.0,77,0.00,,,0.26,Wunderground v.1.15,2013-02-17 22:55:00,
2013-02-17 13:00:00,69.5,63.1,30.09,ENE,68,8.0,8.0,80,0.00,,,0.26,Wunderground v.1.15,2013-02-17 23:00:00,
2013-02-17 13:05:00,69.4,63.0,30.09,ESE,110,8.0,8.0,80,0.00,,,0.26,Wunderground v.1.15,2013-02-17 23:05:00,
2013-02-17 13:15:00,69.2,63.5,30.09,ENE,65,7.0,8.0,82,0.00,,,0.26,Wunderground v.1.15,2013-02-17 23:15:00,
2013-02-17 13:25:00,70.7,62.8,30.08,ENE,72,7.0,12.0,76,0.00,,,0.26,Wunderground v.1.15,2013-02-17 23:25:00,
2013-02-17 13:30:00,71.0,62.3,30.09,ENE,67,7.0,16.0,74,0.00,,,0.26,Wunderground v.1.15,2013-02-17 23:30:00,
2013-02-17 13:40:00,72.0,63.3,30.08,ENE,68,8.0,10.0,74,0.00,,,0.26,Wunderground v.1.15,2013-02-17 23:40:00,
2013-02-17 13:50:00,69.2,63.1,30.07,NE,44,8.0,8.0,81,0.00,,,0.27,Wunderground v.1.15,2013-02-17 23:50:00,
2013-02-17 14:00:00,70.6,63.4,30.07,ENE,61,7.0,7.0,78,0.00,,,0.27,Wunderground v.1.15,2013-02-18 00:00:00,
2013-02-17 14:05:00,71.1,63.5,30.06,ESE,114,8.0,8.0,77,0.00,,,0.27,Wunderground v.1.15,2013-02-18 00:05:00,
2013-02-17 14:15:00,69.0,64.0,30.06,ESE,105,9.0,15.0,84,0.00,,,0.27,Wunderground v.1.15,2013-02-18 00:15:00,
2013-02-17 14:25:00,69.2,63.5,30.06,ESE,119,7.0,12.0,82,0.00,,,0.27,Wunderground v.1.15,2013-02-18 00:25:00,
2013-02-17 14:35:00,70.0,63.9,30.06,ESE,110,6.0,7.0,81,0.00,,,0.27,Wunderground v.1.15,2013-02-18 00:35:00,
2013-02-17 14:45:00,70.6,64.8,30.06,East,96,6.0,7.0,82,0.00,,,0.27,Wunderground v.1.15,2013-02-18 00:45:00,
2013-02-17 14:55:00,71.2,64.4,30.05,ESE,118,6.0,18.0,79,0.00,,,0.27,Wunderground v.1.15,2013-02-18 00:55:00,
2013-02-17 15:00:00,72.1,64.5,30.04,ENE,57,7.0,10.0,77,0.00,,,0.27,Wunderground v.1.15,2013-02-18 01:00:00,
2013-02-17 15:05:00,72.8,63.2,30.05,ENE,78,8.0,10.0,72,0.00,,,0.27,Wunderground v.1.15,2013-02-18 01:05:00,
2013-02-17 15:15:00,72.7,63.5,30.04,NE,36,9.0,9.0,73,0.00,,,0.27,Wunderground v.1.15,2013-02-18 01:15:00,
2013-02-17 15:20:00,72.4,63.3,30.04,ENE,77,9.0,9.0,73,0.00,,,0.27,Wunderground v.1.15,2013-02-18 01:20:00,
2013-02-17 15:30:00,73.0,63.0,30.04,ENE,76,6.0,6.0,71,0.00,,,0.27,Wunderground v.1.15,2013-02-18 01:30:00,
2013-02-17 15:40:00,73.3,63.7,30.04,ENE,78,10.0,10.0,72,0.00,,,0.27,Wunderground v.1.15,2013-02-18 01:40:00,
2013-02-17 15:50:00,73.0,63.0,30.04,East,86,10.0,13.0,71,0.00,,,0.27,Wunderground v.1.15,2013-02-18 01:50:00,
2013-02-17 16:00:00,72.6,63.4,30.04,NE,56,10.0,10.0,73,0.00,,,0.27,Wunderground v.1.15,2013-02-18 02:00:00,
2013-02-17 16:05:00,72.6,63.1,30.04,East,80,10.0,20.0,72,0.00,,,0.27,Wunderground v.1.15,2013-02-18 02:05:00,
2013-02-17 16:15:00,72.7,61.5,30.04,East,94,10.0,10.0,68,0.00,,,0.27,Wunderground v.1.15,2013-02-18 02:15:00,
2013-02-17 16:25:00,72.3,62.0,30.04,NNE,28,10.0,12.0,70,0.00,,,0.27,Wunderground v.1.15,2013-02-18 02:25:00,
2013-02-17 16:35:00,72.6,62.3,30.03,ENE,59,9.0,11.0,70,0.00,,,0.27,Wunderground v.1.15,2013-02-18 02:35:00,
2013-02-17 16:45:00,72.2,61.5,30.04,East,90,9.0,17.0,69,0.00,,,0.27,Wunderground v.1.15,2013-02-18 02:45:00,
2013-02-17 16:55:00,72.3,62.4,30.05,East,96,9.0,13.0,71,0.00,,,0.27,Wunderground v.1.15,2013-02-18 02:55:00,
2013-02-17 17:05:00,71.9,62.4,30.05,East,94,9.0,12.0,72,0.00,,,0.27,Wunderground v.1.15,2013-02-18 03:05:00,
2013-02-17 17:15:00,72.0,62.1,30.06,NE,53,9.0,9.0,71,0.00,,,0.27,Wunderground v.1.15,2013-02-18 03:15:00,
2013-02-17 17:25:00,71.8,62.3,30.05,NE,46,10.0,10.0,72,0.00,,,0.27,Wunderground v.1.15,2013-02-18 03:25:00,
2013-02-17 17:30:00,71.6,61.7,30.06,NE,53,10.0,10.0,71,0.00,,,0.27,Wunderground v.1.15,2013-02-18 03:30:00,
2013-02-17 17:40:00,71.7,61.8,30.06,ENE,69,9.0,9.0,71,0.00,,,0.27,Wunderground v.1.15,2013-02-18 03:40:00,
2013-02-17 17:50:00,71.8,61.5,30.06,ENE,69,11.0,12.0,70,0.00,,,0.27,Wunderground v.1.15,2013-02-18 03:50:00,
2013-02-17 18:00:00,71.5,61.2,30.06,NE,34,10.0,12.0,70,0.00,,,0.27,Wunderground v.1.15,2013-02-18 04:00:00,
2013-02-17 18:05:00,71.4,61.5,30.06,East,79,9.0,12.0,71,0.00,,,0.27,Wunderground v.1.15,2013-02-18 04:05:00,
2013-02-17 18:15:00,71.3,62.2,30.06,ENE,69,9.0,11.0,73,0.00,,,0.27,Wunderground v.1.15,2013-02-18 04:15:00,
2013-02-17 18:25:00,71.0,61.5,30.07,ESE,106,10.0,16.0,72,0.00,,,0.27,Wunderground v.1.15,2013-02-18 04:25:00,
2013-02-17 18:35:00,70.8,62.1,30.07,ENE,60,9.0,11.0,74,0.00,,,0.27,Wunderground v.1.15,2013-02-18 04:35:00,
2013-02-17 18:45:00,71.1,62.0,30.06,East,88,12.0,13.0,73,0.00,,,0.27,Wunderground v.1.15,2013-02-18 04:45:00,
2013-02-17 18:55:00,70.9,62.2,30.07,ENE,66,11.0,13.0,74,0.00,,,0.27,Wunderground v.1.15,2013-02-18 04:55:00,
2013-02-17 19:00:00,70.9,61.8,30.07,ENE,68,11.0,11.0,73,0.00,,,0.27,Wunderground v.1.15,2013-02-18 05:00:00,
2013-02-17 19:05:00,70.8,61.3,30.07,East,86,11.0,18.0,72,0.00,,,0.27,Wunderground v.1.15,2013-02-18 05:05:00,
2013-02-17 19:10:00,70.9,61.4,30.08,ESE,123,11.0,14.0,72,0.00,,,0.27,Wunderground v.1.15,2013-02-18 05:10:00,
2013-02-17 19:15:00,70.9,61.4,30.07,East,94,11.0,14.0,72,0.00,,,0.27,Wunderground v.1.15,2013-02-18 05:15:00,
2013-02-17 19:25:00,70.7,61.6,30.08,ENE,72,10.0,11.0,73,0.00,,,0.27,Wunderground v.1.15,2013-02-18 05:25:00,
2013-02-17 19:30:00,70.8,61.7,30.08,East,83,9.0,9.0,73,0.00,,,0.27,Wunderground v.1.15,2013-02-18 05:30:00,
2013-02-17 19:40:00,70.9,61.8,30.08,ENE,71,9.0,9.0,73,0.00,,,0.27,Wunderground v.1.15,2013-02-18 05:40:00,
2013-02-17 19:50:00,70.9,61.8,30.09,East,96,11.0,12.0,73,0.00,,,0.27,Wunderground v.1.15,2013-02-18 05:50:00,
2013-02-17 20:00:00,71.0,62.3,30.10,NE,55,11.0,11.0,74,0.00,,,0.27,Wunderground v.1.15,2013-02-18 06:00:00,
2013-02-17 20:05:00,70.9,61.4,30.10,East,91,10.0,13.0,72,0.00,,,0.27,Wunderground v.1.15,2013-02-18 06:05:00,
2013-02-17 20:15:00,71.0,61.1,30.11,NE,44,11.0,11.0,71,0.00,,,0.27,Wunderground v.1.15,2013-02-18 06:15:00,
2013-02-17 20:25:00,70.8,61.7,30.11,East,89,9.0,10.0,73,0.00,,,0.27,Wunderground v.1.15,2013-02-18 06:25:00,
2013-02-17 20:35:00,70.9,61.8,30.12,ENE,74,9.0,12.0,73,0.00,,,0.27,Wunderground v.1.15,2013-02-18 06:35:00,
2013-02-17 20:45:00,71.1,60.8,30.13,NE,44,10.0,11.0,70,0.00,,,0.27,Wunderground v.1.15,2013-02-18 06:45:00,
2013-02-17 20:55:00,71.0,60.7,30.13,NE,51,8.0,11.0,70,0.00,,,0.27,Wunderground v.1.15,2013-02-18 06:55:00,
2013-02-17 21:05:00,70.9,61.4,30.13,East,94,7.0,9.0,72,0.00,,,0.27,Wunderground v.1.15,2013-02-18 07:05:00,
2013-02-17 21:15:00,70.7,62.0,30.13,ENE,75,7.0,10.0,74,0.00,,,0.27,Wunderground v.1.15,2013-02-18 07:15:00,
2013-02-17 21:25:00,70.7,61.6,30.13,East,79,7.0,7.0,73,0.00,,,0.27,Wunderground v.1.15,2013-02-18 07:25:00,
2013-02-17 21:35:00,70.7,62.0,30.13,East,84,9.0,16.0,74,0.00,,,0.27,Wunderground v.1.15,2013-02-18 07:35:00,
2013-02-17 21:45:00,70.4,62.5,30.14,ENE,69,8.0,9.0,76,0.00,,,0.27,Wunderground v.1.15,2013-02-18 07:45:00,
2013-02-17 21:55:00,70.6,62.7,30.13,ENE,71,8.0,9.0,76,0.00,,,0.27,Wunderground v.1.15,2013-02-18 07:55:00,
2013-02-17 22:00:00,70.6,62.3,30.13,East,79,8.0,8.0,75,0.00,,,0.27,Wunderground v.1.15,2013-02-18 08:00:00,
2013-02-17 22:05:00,70.6,63.0,30.14,NE,51,9.0,9.0,77,0.00,,,0.27,Wunderground v.1.15,2013-02-18 08:05:00,
2013-02-17 22:15:00,70.0,63.2,30.14,ENE,70,8.0,13.0,79,0.00,,,0.27,Wunderground v.1.15,2013-02-18 08:15:00,
2013-02-17 22:25:00,69.9,62.0,30.14,NE,51,10.0,13.0,76,0.00,,,0.27,Wunderground v.1.15,2013-02-18 08:25:00,
2013-02-17 22:35:00,69.9,62.0,30.14,East,84,7.0,12.0,76,0.00,,,0.27,Wunderground v.1.15,2013-02-18 08:35:00,
2013-02-17 22:40:00,69.9,62.4,30.14,ESE,106,8.0,8.0,77,0.00,,,0.27,Wunderground v.1.15,2013-02-18 08:40:00,
2013-02-17 22:50:00,69.4,63.7,30.14,NE,55,9.0,9.0,82,0.00,,,0.28,Wunderground v.1.15,2013-02-18 08:50:00,
2013-02-17 23:00:00,67.9,63.6,30.14,East,94,7.0,7.0,86,0.00,,,0.28,Wunderground v.1.15,2013-02-18 09:00:00,
2013-02-17 23:05:00,68.3,63.6,30.14,ENE,69,7.0,7.0,85,0.00,,,0.28,Wunderground v.1.15,2013-02-18 09:05:00,
2013-02-17 23:15:00,68.6,62.5,30.13,NE,44,7.0,9.0,81,0.00,,,0.28,Wunderground v.1.15,2013-02-18 09:15:00,
2013-02-17 23:25:00,68.6,63.2,30.13,SE,126,6.0,12.0,83,0.00,,,0.28,Wunderground v.1.15,2013-02-18 09:25:00,
2013-02-17 23:30:00,68.8,63.1,30.12,ENE,75,6.0,11.0,82,0.00,,,0.28,Wunderground v.1.15,2013-02-18 09:30:00,
2013-02-17 23:40:00,68.9,62.8,30.12,NE,55,7.0,7.0,81,0.00,,,0.28,Wunderground v.1.15,2013-02-18 09:40:00,
2013-02-17 23:50:00,69.0,62.9,30.12,ENE,72,7.0,7.0,81,0.00,,,0.28,Wunderground v.1.15,2013-02-18 09:50:00,